Simultaneous Nadir Overpasses (SNOs) Predictions

Prediction of SNOs between GOES-15 and METOP-C Satellite Orbit:

Table of predicted SNOs for the next 14.0 days since TLE Epoch: 11/14/2025
Index Date Time (GOES-15) GOES-15 Lat,Lon METOP-C Lat,Lon Distance(km) Time Diff (sec)
1 11/15/2025 17:21:26 -0.67, 61.83 -0.43, 62.89 121.38 80
2 11/17/2025 05:37:37 0.65, 61.70 1.42, 58.33 384.98 80
3 11/18/2025 05:19:38 0.67, 61.68 0.29, 63.32 187.03 80
4 11/19/2025 17:35:58 -0.64, 61.75 -1.30, 58.72 344.66 80
5 11/20/2025 17:17:58 -0.66, 61.74 -0.22, 63.72 226.48 80
6 11/22/2025 05:34:09 0.63, 61.63 1.19, 59.16 281.64 80
7 11/23/2025 05:16:09 0.66, 61.61 0.11, 64.16 289.91 80
8 11/24/2025 17:32:29 -0.62, 61.68 -1.10, 59.56 242.06 80
9 11/25/2025 17:14:28 -0.65, 61.68 -0.00, 64.56 328.73 80
10 11/27/2025 05:30:40 0.62, 61.58 0.96, 59.99 180.83 80
11 11/28/2025 05:12:39 0.65, 61.57 -0.14, 64.99 390.53 80
